Overview Statistics Trail Chart Weather Telemetry Raw packets
 

This is the latest recevied weather packets stored in our database for station/object W7TRD. If no packets are shown the sender has not sent any weather packets the latest 10 day(s).

<< 1 2 3 4 >>
Time Temp. Humidity Pressure Rain* Wind** Luminosity Snow
1788633479 17.22° C 77% 1018.3 hPa 0 mm - 533 W/m² -
1788633175 17.78° C 77% 1018.4 hPa 0 mm - 398 W/m² -
1788632874 17.78° C 77% 1018.3 hPa 0 mm - 358 W/m² -
1788632574 18.89° C 74% 1018.5 hPa 0 mm - 371 W/m² -
1788632269 17.22° C 79% 1018.6 hPa 0 mm - 675 W/m² -
1788631969 17.78° C 78% 1018.5 hPa 0 mm - 322 W/m² -
1788631668 16.67° C 79% 1018.6 hPa 0 mm - 562 W/m² -
1788631363 16.67° C 80% 1018.4 hPa 0 mm - 431 W/m² -
1788631058 16.67° C 82% 1018.6 hPa 0 mm - 355 W/m² -
1788630753 16.67° C 80% 1018.4 hPa 0 mm - 479 W/m² -
1788630448 16.67° C 83% 1018.6 hPa 0 mm - 270 W/m² -
1788630144 16.11° C 83% 1018.6 hPa 0 mm - 211 W/m² -
1788629840 17.22° C 81% 1018.7 hPa 0 mm - 228 W/m² -
1788629559 17.22° C 81% 1018.7 hPa 0 mm - 270 W/m² -
1788629235 16.11° C 85% 1018.8 hPa 0 mm - 262 W/m² -
1788628935 15.56° C 85% 1018.7 hPa 0 mm - 159 W/m² -
1788628631 15.56° C 84% 1018.7 hPa 0 mm - 106 W/m² -
1788628327 16.11° C 83% 1018.7 hPa 0 mm - 96 W/m² -
1788628024 16.67° C 81% 1018.5 hPa 0 mm - 189 W/m² -
1788627724 17.22° C 79% 1018.5 hPa 0 mm - 349 W/m² -
1788627424 18.89° C 76% 1018.8 hPa 0 mm - 319 W/m² -
1788627119 18.33° C 80% 1018.6 hPa 0 mm - 248 W/m² -
1788626814 17.78° C 79% 1018.7 hPa 0 mm - 199 W/m² -
1788626513 17.22° C 81% 1018.5 hPa 0 mm - 189 W/m² -
1788626209 16.11° C 84% 1018.6 hPa 0 mm - 162 W/m² -

* Rain latest hour (hover to see other rain measurements)
** Current wind speed in m/s (hover to see current wind gust speed)